This is the latest recevied weather packets stored in our database for station/object KE8DAF-15. If no packets are shown the sender has not sent any weather packets the latest 10 day(s).
| Time | Temp. | Humidity | Pressure | Rain* | Wind** | Luminosity | Snow |
|---|---|---|---|---|---|---|---|
| 1777499730 | 7.78° C | 61% | 1000.1 hPa | 0 mm | - | - | - |
| 1777499430 | 7.78° C | 61% | 1000.2 hPa | 0 mm | - | - | - |
| 1777499130 | 8.33° C | 61% | 1000.2 hPa | 0 mm | - | - | - |
| 1777498830 | 8.33° C | 60% | 1000 hPa | 0 mm | - | - | - |
| 1777498530 | 8.33° C | 60% | 1000 hPa | 0 mm | - | - | - |
| 1777498230 | 8.33° C | 62% | 1000 hPa | 0 mm | - | - | - |
| 1777497930 | 7.78° C | 61% | 999.9 hPa | 0 mm | - | - | - |
| 1777497630 | 8.33° C | 59% | 1000 hPa | 0 mm | - | - | - |
| 1777497330 | 8.89° C | 58% | 999.9 hPa | 0 mm | - | - | - |
| 1777497030 | 9.44° C | 58% | 1000 hPa | 0 mm | - | - | - |
| 1777496730 | 9.44° C | 58% | 999.9 hPa | 0 mm | - | - | - |
| 1777496430 | 9.44° C | 61% | 999.9 hPa | 0 mm | - | - | - |
| 1777496130 | 9.44° C | 59% | 1000 hPa | 0 mm | - | - | - |
| 1777495830 | 9.44° C | 61% | 999.9 hPa | 0 mm | - | - | - |
| 1777495530 | 9.44° C | 60% | 1000 hPa | 0 mm | - | - | - |
| 1777495230 | 9.44° C | 62% | 1000 hPa | 0 mm | - | - | - |
| 1777494930 | 9.44° C | 60% | 1000 hPa | 0 mm | - | - | - |
| 1777494630 | 9.44° C | 63% | 1000 hPa | 0 mm | - | - | - |
| 1777494330 | 9.44° C | 60% | 1000.1 hPa | 0 mm | - | - | - |
| 1777494030 | 10° C | 62% | 1000.1 hPa | 0 mm | - | - | - |
| 1777493730 | 9.44° C | 62% | 1000.1 hPa | 0 mm | - | - | - |
| 1777493430 | 10° C | 62% | 1000.1 hPa | 0 mm | - | - | - |
| 1777493130 | 10° C | 61% | 1000.1 hPa | 0 mm | - | - | - |
| 1777492830 | 9.44° C | 64% | 1000.1 hPa | 0 mm | - | - | - |
| 1777492530 | 9.44° C | 63% | 1000.2 hPa | 0 mm | - | - | - |
* Rain latest hour (hover to see other rain measurements)
** Current wind speed in m/s (hover to see current wind gust speed)